Theta_e
365 365 365 365 365 365 363 362 361 361 361 361 360 359 358 357 356 357 357 356 356 354 351 350 350 349 348 346 345 344 344 343 342 341 341 341 339 338 337 336 336 338 338 337 335 336 337 337 336 336 335 335 334 334 335 336 337 335 335 335 336 336 336 336 337 337 336 335 334 333 333 333 333 333 333 333 332 332 332 332 332 331 331 331 331
365 365 365 365 365 365 364 363 362 361 361 361 360 359 359 358 357 357 357 356 356 354 351 350 349 349 349 347 346 345 344 344 343 341 341 341 339 338 338 337 335 336 338 337 336 336 336 335 335 335 335 334 334 334 336 336 336 335 334 335 335 335 334 335 336 336 335 334 334 334 333 333 334 334 334 334 334 333 333 333 332 332 331 331 330
366 365 365 365 365 364 364 363 362 362 361 361 361 359 359 359 358 357 357 356 356 354 352 351 349 349 348 347 346 346 345 343 343 342 341 341 340 338 338 338 337 336 337 337 337 337 336 336 336 336 335 335 336 336 336 336 336 335 334 334 335 335 334 334 335 335 334 334 334 334 334 334 333 333 332 332 333 334 334 333 331 331 331 331 331
366 366 365 365 365 364 364 364 363 363 362 361 361 360 359 358 358 358 357 356 356 355 353 352 350 349 348 347 346 346 345 344 343 343 341 341 340 339 339 340 339 337 337 337 336 336 336 337 337 336 336 336 337 336 336 336 336 335 334 334 334 334 334 334 334 334 334 335 335 334 334 334 333 332 331 332 333 333 332 331 330 329 329 330 330
366 366 365 365 365 365 364 364 363 363 362 361 361 360 359 358 358 358 357 357 356 355 354 353 351 349 348 347 347 346 345 344 343 343 342 340 340 340 339 340 340 338 337 337 336 336 337 337 336 335 335 336 337 337 336 336 336 335 335 334 333 333 334 334 334 334 334 334 334 334 334 334 334 333 332 332 332 332 331 330 329 329 329 329 329
366 366 365 365 365 365 364 364 364 363 362 362 361 360 360 359 358 358 357 357 356 356 355 354 352 350 349 348 347 346 345 344 343 342 342 341 340 340 340 340 340 339 339 339 337 336 336 337 337 335 335 336 337 337 337 336 335 335 334 333 333 333 333 334 334 335 335 335 335 335 335 334 334 333 332 332 332 331 330 329 329 329 329 329 329
367 367 366 365 364 365 364 364 364 363 363 362 361 360 360 359 359 359 357 357 356 355 355 354 353 351 350 349 347 346 345 344 343 342 342 342 341 340 339 339 339 339 340 341 339 338 337 337 337 336 336 336 337 337 336 335 335 334 334 333 333 333 333 334 335 335 335 335 335 335 335 334 334 333 332 331 331 331 330 330 330 329 329 329 329
367 367 366 365 364 364 364 363 364 363 363 362 361 360 359 358 359 358 358 357 356 356 355 355 354 352 351 349 348 346 344 344 343 342 342 342 342 341 340 339 339 339 339 340 339 339 338 337 337 337 336 336 337 337 335 334 334 334 334 333 332 333 333 334 334 334 334 335 335 335 335 335 334 333 332 332 331 330 329 330 330 329 329 329 329
366 367 366 365 364 364 363 363 364 364 363 363 362 361 359 358 358 359 358 358 356 356 356 355 354 353 351 350 348 346 344 344 343 343 342 342 342 342 341 340 340 339 339 340 339 339 338 337 337 337 337 337 337 337 336 335 335 334 333 332 332 333 333 333 333 333 333 334 335 335 335 335 334 333 332 331 330 329 329 329 329 329 329 329 328
365 366 366 365 364 363 363 363 363 364 364 363 362 362 360 359 359 359 359 358 356 356 356 356 355 353 352 350 348 346 344 344 344 343 342 342 342 342 342 341 341 340 340 341 341 340 338 338 338 338 337 337 337 337 336 335 335 334 333 332 332 332 333 334 332 331 331 333 334 334 334 334 333 332 331 330 330 329 329 329 329 329 329 328 328
364 364 365 366 364 364 363 363 363 364 364 364 364 362 361 360 360 360 360 359 357 356 356 356 356 354 352 351 349 347 345 344 344 343 342 341 341 342 341 341 341 340 340 341 341 340 339 338 338 338 337 337 337 337 336 335 335 334 333 332 332 333 334 333 331 331 332 333 333 333 333 332 332 331 330 330 330 329 329 329 329 328 328 328 328
362 362 364 365 365 365 364 363 363 364 364 365 365 364 362 361 360 360 361 360 359 357 357 357 356 354 353 351 349 347 346 344 343 343 343 341 341 342 341 340 341 340 339 340 340 340 339 338 338 338 337 337 337 337 337 336 335 334 333 333 333 333 333 332 331 331 333 333 333 333 332 331 331 330 329 330 330 330 329 329 328 327 327 327 326
359 359 362 365 366 366 365 365 364 363 364 364 365 364 363 361 361 360 361 361 360 358 358 357 356 354 353 351 349 347 346 345 344 343 343 341 341 342 340 338 340 340 339 340 340 340 339 338 338 338 337 337 337 337 337 336 335 334 333 332 333 333 332 332 331 331 333 334 334 333 332 331 331 330 330 330 330 330 330 329 328 327 326 325 324
357 357 359 363 366 366 366 366 365 364 364 364 365 365 364 362 362 360 360 361 360 359 358 357 356 354 352 351 349 348 347 346 344 344 343 341 342 343 340 337 338 339 339 339 340 340 339 339 338 338 337 337 337 336 335 335 334 333 332 332 333 333 332 331 330 331 333 334 334 333 332 331 331 330 330 330 330 331 330 328 326 325 323 322 321
355 356 357 361 365 366 366 366 366 365 364 364 364 365 364 363 362 361 360 361 360 360 359 357 355 354 352 351 350 348 347 346 345 344 343 341 341 342 340 337 338 339 339 339 340 340 340 339 338 339 339 338 337 336 335 334 333 332 332 332 332 332 331 330 329 330 332 333 332 332 331 331 330 330 329 329 330 329 328 325 323 322 321 321 320
355 355 356 360 363 366 366 366 366 367 366 365 365 365 364 364 363 362 361 360 360 360 358 357 356 354 352 351 350 348 347 346 345 344 344 342 341 341 340 337 336 338 340 340 341 341 340 340 339 339 339 338 336 336 336 335 333 332 332 330 330 332 331 329 329 332 333 332 331 331 331 330 329 328 328 327 326 325 324 322 321 321 321 320 321
356 355 355 359 363 365 367 367 368 368 367 367 366 366 365 364 363 363 361 360 360 359 358 357 356 354 352 351 350 349 347 346 345 344 344 343 342 342 340 336 334 337 340 341 341 340 339 340 339 339 339 338 336 335 335 334 333 331 328 329 332 334 333 330 330 332 332 330 330 330 329 328 326 326 325 325 324 323 323 323 322 321 321 320 320
357 356 356 359 363 366 367 368 369 369 369 369 367 366 366 365 364 363 362 360 359 358 357 356 354 353 352 351 351 349 348 347 346 345 345 344 343 341 338 335 333 336 339 341 341 339 338 339 340 340 339 336 334 332 331 331 330 326 326 332 336 336 334 333 333 333 331 329 329 328 327 327 326 325 323 323 322 322 323 323 322 321 321 320 320
359 358 357 360 364 368 369 369 370 371 370 369 368 367 366 365 364 363 361 360 358 357 356 355 353 352 351 350 350 349 348 347 345 344 344 344 342 339 336 334 334 335 337 338 339 338 337 339 341 340 337 334 332 331 330 328 325 321 326 335 336 334 334 334 333 332 330 329 328 327 327 326 324 322 321 320 320 321 322 322 322 322 322 321 321
362 360 360 364 368 370 371 371 371 371 370 369 367 367 366 365 364 362 360 359 358 357 356 354 353 352 351 350 349 347 346 344 342 340 340 339 339 338 335 334 333 333 332 333 335 336 336 338 340 338 335 333 333 331 329 328 323 320 327 335 335 333 333 333 332 330 329 328 328 325 324 322 321 321 320 320 320 320 320 320 320 320 321 321 320
365 363 365 369 371 372 372 371 371 370 369 368 367 365 365 364 362 361 359 357 356 356 355 354 353 351 350 349 349 347 345 344 341 339 337 336 336 335 333 332 330 329 329 330 332 335 336 337 338 337 334 333 332 330 328 325 323 325 330 334 333 333 333 332 329 327 326 325 324 322 322 322 321 320 320 320 320 319 317 317 316 316 316 315 315
369 369 371 372 372 372 372 370 370 368 367 366 365 363 362 361 360 359 357 356 355 353 353 353 351 349 348 347 346 345 344 343 342 340 338 336 335 333 332 331 330 330 331 333 334 335 336 336 336 335 334 333 331 328 325 323 326 331 332 332 332 333 332 328 325 323 322 322 321 321 322 321 320 320 320 319 318 317 316 316 315 313 312 311 311
372 372 373 373 372 372 371 369 368 366 365 364 362 359 359 358 358 357 356 354 352 350 349 349 347 345 345 344 343 342 341 341 341 341 339 337 335 334 333 333 333 334 334 335 335 335 336 335 334 333 333 330 328 326 325 326 330 332 331 330 330 329 326 323 322 321 320 319 320 321 321 320 320 320 319 317 316 315 315 314 313 311 310 310 310
373 373 373 372 371 371 369 368 366 364 362 360 358 357 356 356 355 355 353 351 349 346 345 345 344 343 342 342 341 340 339 339 339 339 339 337 336 335 335 334 335 336 336 336 337 337 336 334 331 330 328 326 327 328 330 331 331 331 329 326 325 323 321 321 320 319 319 319 320 320 320 320 320 318 317 316 315 315 313 312 311 310 310 309 309
374 373 371 370 370 369 368 366 364 362 360 358 357 355 355 354 353 352 350 349 347 344 343 343 343 342 342 341 341 340 339 338 338 337 337 338 337 337 336 335 336 337 338 337 336 335 333 331 330 330 329 329 331 332 332 332 331 329 325 323 321 320 320 319 319 318 319 320 320 320 320 320 318 316 315 315 314 313 311 310 310 310 309 308 309
372 371 369 369 368 367 366 364 362 360 359 357 356 354 352 352 350 348 348 346 345 344 343 342 342 342 341 342 342 341 340 339 338 337 337 337 338 337 336 336 336 337 337 335 331 330 331 331 332 334 333 333 333 333 331 330 327 325 322 320 319 319 318 318 318 319 320 320 319 319 319 319 318 316 315 314 312 311 310 310 309 308 308 308 308
369 368 367 367 366 365 364 362 360 358 356 355 354 352 350 349 347 346 345 344 343 343 342 341 342 341 341 343 343 342 342 341 340 339 338 337 337 336 335 335 336 336 335 332 330 331 333 334 334 334 333 332 332 330 328 326 323 322 321 319 319 318 318 318 318 319 319 319 319 319 319 319 317 316 314 312 310 310 309 309 308 308 308 308 308
366 366 365 364 363 362 361 358 356 354 353 352 351 350 348 347 345 344 344 343 343 342 341 341 341 341 342 344 344 342 342 342 341 341 339 337 337 336 334 334 335 335 334 331 331 333 334 333 333 333 332 332 331 328 325 323 321 321 321 320 319 320 320 319 319 319 319 319 319 320 320 318 316 313 312 311 310 309 308 307 307 308 307 307 308
364 363 362 361 358 356 354 352 351 350 349 348 347 346 346 346 345 344 343 343 343 343 342 342 342 342 343 345 344 342 341 341 342 341 339 338 337 335 334 334 334 333 332 332 332 332 331 331 331 331 331 330 328 325 322 322 321 321 321 321 321 321 321 321 321 320 320 320 319 318 317 315 312 311 310 310 309 308 307 307 307 307 307 308 309
357 357 358 357 352 348 346 345 345 345 344 343 342 341 341 343 344 344 343 343 343 343 343 343 343 344 345 344 344 343 342 342 342 340 338 337 336 335 335 334 333 331 331 332 332 331 330 330 329 329 329 327 325 322 321 321 322 322 322 322 322 322 322 322 321 320 318 317 315 313 312 311 310 310 309 308 308 308 307 307 307 307 308 308 309
351 353 355 352 347 344 341 340 340 339 339 340 339 337 337 338 341 342 342 342 343 343 343 343 344 344 344 344 343 343 342 341 341 339 338 336 335 335 335 333 331 331 331 331 330 329 328 328 327 327 326 324 323 323 323 323 324 324 324 323 323 323 323 321 319 316 314 313 311 310 310 310 309 309 308 308 308 307 307 307 307 307 308 308 308
351 352 351 348 345 342 340 339 338 337 336 337 338 337 336 334 333 335 338 340 340 341 341 342 342 343 343 342 342 342 341 340 340 338 337 336 335 334 333 332 331 331 330 330 329 328 327 326 326 326 325 325 325 325 325 324 324 323 322 322 321 320 320 318 315 313 312 311 310 310 309 308 307 307 307 307 307 307 307 307 308 307 307 307 308
350 350 348 346 344 341 340 339 338 337 336 335 336 336 336 333 329 329 332 335 337 339 340 340 341 341 341 341 341 341 340 339 338 337 336 335 334 333 332 331 330 330 329 329 327 326 326 327 327 326 325 324 324 323 322 321 320 319 318 318 317 316 316 314 312 311 310 310 309 309 308 307 306 305 305 306 307 307 308 308 307 306 306 307 307
348 348 347 346 344 342 341 340 339 338 337 336 335 335 335 334 333 331 331 332 333 335 337 338 339 339 340 339 339 339 338 338 337 336 334 333 333 332 331 330 328 328 327 327 326 326 327 326 325 324 323 322 320 320 319 318 318 317 317 316 316 316 314 313 311 311 310 309 309 309 308 307 306 305 305 306 307 307 307 306 305 306 306 306 306
348 348 347 346 345 343 342 341 340 338 337 336 336 335 334 334 335 334 333 332 331 331 332 334 336 337 337 337 337 337 337 336 335 334 333 332 331 331 329 328 327 326 326 326 326 326 326 324 323 322 321 320 319 319 318 318 317 317 317 316 315 314 313 312 311 310 308 306 305 305 306 306 306 306 305 306 307 307 306 305 305 306 306 305 305
348 347 347 346 345 344 343 342 341 340 339 338 337 336 335 334 333 332 332 332 331 330 330 331 332 334 334 334 334 334 333 332 332 332 331 331 330 329 328 327 326 326 325 325 326 326 324 322 321 320 319 319 319 318 318 317 317 317 316 315 314 313 312 311 311 310 308 306 305 305 306 306 306 306 306 306 306 305 305 305 305 305 305 305 306
347 346 346 346 345 345 343 342 342 342 341 340 338 336 335 334 332 331 330 330 330 330 329 329 329 330 330 330 330 328 328 328 328 328 328 328 327 326 326 326 325 325 325 325 325 324 321 320 320 320 319 319 318 318 317 316 316 315 314 313 313 312 311 309 309 308 308 307 307 307 308 308 307 307 306 306 305 304 304 304 304 305 305 305 306
347 347 347 346 345 344 342 342 341 341 341 341 340 338 335 334 332 331 330 329 328 327 327 327 327 327 327 327 326 325 325 325 325 325 325 325 325 325 325 325 325 324 324 324 322 321 320 320 320 319 319 318 318 317 316 316 315 314 313 312 312 311 309 307 307 307 307 307 308 308 308 307 306 306 305 305 304 304 304 304 304 305 305 305 306
345 345 346 346 345 343 342 341 340 340 340 341 340 338 337 336 335 334 332 329 327 325 325 325 325 325 326 326 325 325 325 324 324 324 323 323 324 325 325 325 324 324 323 322 321 321 321 320 320 319 319 318 318 317 316 316 315 314 313 313 312 310 308 307 306 305 305 305 306 307 307 306 305 305 305 304 304 303 304 305 305 305 305 305 306
342 342 343 343 343 342 341 341 340 340 340 340 339 338 338 337 336 334 332 329 327 325 324 324 324 324 325 326 326 325 325 325 324 324 324 323 324 324 325 324 324 323 324 323 322 322 322 320 319 319 319 318 317 317 316 315 314 314 314 313 311 309 307 306 305 304 304 304 305 306 306 306 305 305 304 304 304 304 305 305 305 305 305 305 306
341 340 340 340 340 340 340 340 340 340 340 339 338 338 337 336 336 334 331 330 328 326 324 325 325 324 324 324 325 325 325 325 324 324 323 323 323 324 324 323 322 322 323 323 323 322 321 320 319 318 317 317 316 316 315 314 314 313 312 310 308 306 305 305 304 304 304 305 305 305 305 305 304 304 304 304 304 304 304 304 304 304 305 306 306
339 339 339 339 339 339 339 339 338 339 339 339 338 337 336 335 334 333 332 331 329 328 328 328 327 326 324 324 324 324 324 324 324 323 323 323 323 323 323 322 320 320 321 322 322 321 320 319 318 317 317 317 317 316 314 313 313 312 310 308 306 305 304 303 303 303 304 305 305 305 304 304 304 304 304 304 304 304 304 304 304 305 305 306 305
336 337 338 337 336 336 336 337 336 336 336 336 336 335 334 335 334 334 333 332 330 330 330 329 328 327 326 324 324 324 323 323 323 322 322 322 322 322 322 320 319 319 320 322 321 320 319 318 318 317 317 317 316 315 314 313 312 311 309 307 306 304 303 302 302 303 303 304 305 304 304 304 303 304 304 304 304 304 304 305 305 305 305 306 305
333 335 336 335 334 334 334 334 334 334 334 334 333 333 334 334 334 334 334 332 331 331 330 329 329 328 326 324 323 323 323 323 323 322 322 322 322 321 321 321 320 320 321 321 320 319 319 318 317 317 317 316 315 314 314 313 313 311 310 308 307 304 302 302 303 303 304 304 304 304 304 303 303 304 304 304 304 304 305 305 304 305 305 305 304
332 334 335 335 334 334 334 334 333 333 333 333 332 332 333 334 333 333 333 333 332 331 331 330 329 327 325 324 323 322 322 323 323 323 323 323 323 322 322 322 321 322 322 321 320 319 318 318 317 317 316 315 315 314 314 313 312 311 309 308 306 304 302 301 302 303 303 304 304 304 303 302 301 302 302 303 303 304 305 304 304 305 305 304 303
333 333 334 333 333 334 334 333 333 333 333 332 332 332 331 331 331 331 331 331 332 331 331 330 329 328 326 324 323 322 322 322 323 323 323 323 324 324 323 322 322 322 321 320 320 319 318 317 317 316 315 314 314 314 313 312 311 310 308 307 306 304 302 301 301 301 301 302 302 301 300 299 297 297 298 301 304 305 304 305 305 304 303 303 303
332 332 332 333 334 334 333 332 332 332 332 331 331 330 329 328 327 326 327 329 330 330 330 329 329 328 327 326 325 324 324 323 323 323 323 324 324 324 323 322 322 322 321 320 320 319 318 318 317 316 314 313 312 312 312 311 310 308 307 305 304 304 303 301 300 300 300 300 300 299 298 296 295 295 298 302 304 305 304 305 304 303 302 302 303
331 332 332 333 333 333 333 332 331 330 330 330 329 328 327 327 326 325 325 326 328 328 328 328 328 327 326 325 325 325 324 324 324 324 324 324 323 323 322 322 322 322 321 321 320 319 318 318 317 316 314 313 311 311 310 309 308 307 306 305 304 303 302 301 301 300 300 300 299 298 297 295 295 297 300 303 304 304 305 305 304 302 302 302 303
330 331 331 331 331 331 330 329 329 328 327 327 327 326 326 326 326 325 324 324 324 325 325 326 327 326 326 325 325 325 324 324 324 324 324 323 323 322 322 322 322 321 321 320 319 318 318 317 316 315 314 312 311 311 310 308 308 307 306 305 304 303 301 301 301 301 301 300 299 297 296 295 295 297 300 303 304 304 305 304 303 302 302 303 303
328 329 329 329 328 328 328 327 327 327 326 326 325 325 325 324 324 324 323 322 321 320 320 320 322 323 324 324 324 325 325 325 324 323 323 323 322 322 322 321 321 321 320 320 319 319 317 316 315 313 312 311 311 310 309 309 309 308 307 306 305 304 303 303 302 301 302 301 299 297 296 295 294 296 300 303 304 304 304 304 303 302 303 303 304
327 327 327 327 326 326 326 326 325 325 324 324 322 322 321 321 320 320 320 319 318 316 315 314 314 315 315 316 317 319 321 322 322 322 322 322 322 322 322 321 321 321 320 320 319 318 317 315 313 312 312 312 311 310 310 309 309 308 307 306 306 305 305 304 303 302 302 301 299 297 295 294 294 297 301 304 304 304 304 304 303 303 303 303 303
Wind_Speed
39 38 38 37 37 37 39 38 38 38 39 38 37 36 36 38 37 36 35 36 35 35 35 35 35 35 35 34 33 31 30 29 29 29 28 27 27 27 27 28 27 25 23 23 23 22 21 19 17 16 15 15 14 13 12 12 10 9 10 12 15 14 13 14 12 11 13 13 13 12 10 11 12 11 10 10 11 12 13 15 16 18 20 21 21
39 38 37 37 38 38 39 38 38 39 39 38 38 37 37 37 38 37 36 36 36 36 36 36 35 35 36 36 35 34 32 31 30 31 31 29 29 29 28 29 30 28 25 24 24 22 22 21 20 18 16 15 15 15 15 14 12 12 14 15 18 17 15 15 15 12 12 13 13 13 13 13 13 12 12 12 13 13 14 15 16 18 20 20 20
39 38 37 38 39 39 38 39 39 39 39 38 38 38 38 37 38 38 38 37 37 37 38 38 37 37 37 37 37 35 34 33 32 32 33 32 31 32 31 30 30 30 28 27 26 24 23 22 21 20 18 17 17 16 16 15 14 15 14 14 17 18 15 14 13 12 12 14 14 14 14 13 14 14 14 14 14 14 15 16 16 17 19 20 20
38 38 38 38 38 38 39 39 39 40 40 38 38 39 39 38 38 38 39 38 38 38 38 38 39 39 39 38 38 37 35 35 34 34 35 35 34 34 33 32 32 32 32 30 29 27 26 24 22 21 19 19 19 18 18 17 16 16 14 11 12 14 12 12 13 14 14 16 16 16 15 15 16 16 16 15 15 15 16 16 17 17 18 19 20
38 39 39 38 38 39 40 40 40 41 41 39 38 39 39 38 38 39 39 39 39 39 38 39 40 41 41 40 39 38 38 37 36 36 36 36 36 36 35 34 33 33 33 32 31 30 29 27 25 22 21 21 21 20 20 20 19 18 17 14 12 11 12 13 15 16 17 18 19 18 17 17 17 17 16 16 16 16 17 17 18 18 19 19 20
38 38 39 39 39 40 40 40 42 42 42 40 39 39 39 38 39 39 40 39 39 39 40 40 41 42 42 41 41 40 39 39 39 38 38 37 38 37 36 35 35 34 33 33 32 32 30 29 27 24 24 24 23 22 22 22 21 20 18 16 14 14 15 16 16 16 17 18 19 20 20 19 19 19 17 16 16 17 17 18 19 19 19 19 18
37 38 39 39 40 41 42 42 43 43 43 42 40 40 39 39 39 40 40 39 38 39 40 41 41 42 42 41 42 41 41 40 40 39 38 38 38 38 37 36 36 35 33 31 30 31 30 28 27 25 26 26 25 24 22 21 21 20 19 17 16 16 17 17 16 16 17 18 20 21 21 20 20 19 18 16 15 16 16 17 18 18 18 18 18
37 37 39 40 40 42 44 44 44 43 43 42 40 39 40 39 39 40 39 39 38 39 40 41 40 40 41 42 42 41 40 40 40 40 38 38 38 38 37 36 35 34 32 29 28 29 28 28 27 27 27 27 26 25 24 23 23 22 21 19 17 18 18 17 16 16 17 19 20 21 21 20 20 19 17 15 14 14 14 14 16 16 16 16 17
37 37 38 40 42 43 45 43 42 41 41 41 40 40 40 40 39 39 39 39 39 37 38 39 39 39 40 40 39 39 39 39 40 40 39 38 38 37 37 36 33 31 29 28 28 29 29 28 28 28 28 28 28 26 25 24 24 24 23 20 20 20 20 19 18 18 18 18 20 20 19 19 19 17 15 15 14 14 14 13 14 15 15 16 19
38 38 39 41 42 43 44 42 40 40 41 41 41 40 40 39 38 38 39 40 39 37 36 37 38 39 38 38 38 38 38 39 39 40 41 40 38 36 34 32 31 30 29 28 28 29 30 29 28 28 28 28 27 27 26 25 25 25 23 22 22 23 21 20 19 19 18 18 19 18 17 18 19 18 16 16 15 13 14 13 13 15 15 16 19
39 39 40 41 42 42 42 40 39 40 41 41 41 41 40 39 38 37 38 39 39 37 36 36 38 39 38 38 38 38 38 38 39 40 41 40 38 35 33 31 31 32 31 30 29 29 29 29 28 28 29 29 29 29 28 28 27 26 24 23 22 23 22 20 19 19 19 18 18 17 17 18 20 19 18 17 15 14 14 14 14 15 14 12 13
40 40 40 41 41 41 41 39 39 40 41 40 40 40 39 38 37 36 36 38 39 37 37 37 38 38 38 37 37 37 37 38 38 39 40 41 39 34 32 32 33 32 32 31 30 28 28 28 29 29 29 29 29 29 30 30 29 27 25 23 22 22 21 20 19 20 20 18 18 18 19 20 21 20 19 17 16 15 15 14 15 16 15 14 13
40 40 40 41 42 41 40 39 39 40 40 40 39 39 38 36 36 36 36 37 38 37 36 37 37 36 36 36 36 37 37 38 38 38 39 41 41 36 33 33 33 32 31 31 29 29 28 28 28 29 29 28 26 26 27 29 29 25 23 21 21 21 20 20 20 21 21 20 19 21 22 21 21 20 20 18 17 16 15 15 16 17 17 17 19
39 40 40 41 42 42 41 40 40 40 39 39 38 37 37 36 35 34 33 35 36 37 35 34 35 35 35 36 37 38 38 38 38 38 38 40 41 40 35 32 31 30 30 30 29 28 28 29 28 29 30 30 28 25 24 25 25 22 19 18 19 20 21 20 20 20 20 20 20 21 21 20 20 21 20 19 19 17 16 16 17 18 19 20 23
37 40 40 41 42 42 41 40 39 39 38 38 37 36 36 35 32 31 32 34 36 36 35 33 33 34 35 36 38 38 37 37 37 37 37 39 41 40 35 31 30 29 28 29 28 27 27 28 29 29 29 29 29 27 24 22 19 16 15 15 18 22 24 21 20 20 20 18 18 18 17 17 18 18 17 18 18 18 17 17 17 19 21 22 24
35 38 40 40 41 42 42 40 38 38 37 37 36 35 34 33 32 31 31 32 33 35 34 33 33 34 35 36 36 34 34 35 35 35 36 37 40 39 35 32 30 28 26 25 26 27 28 28 30 31 28 26 27 25 20 16 12 10 12 17 21 25 26 22 20 20 19 16 15 17 16 15 15 14 14 14 14 16 17 18 20 21 21 19 20
35 38 40 40 41 42 41 39 38 37 37 36 35 34 34 34 33 32 31 30 30 32 33 32 32 33 34 34 33 31 31 33 34 34 34 35 38 38 36 33 31 28 26 24 22 23 25 26 28 27 23 21 22 20 15 10 8 10 16 22 25 27 27 24 20 18 14 13 14 15 14 12 11 11 13 14 15 18 19 19 22 23 18 13 13
34 37 40 41 40 41 41 40 38 37 36 36 36 34 34 33 33 33 33 31 29 29 30 30 31 32 33 32 31 30 30 30 30 31 32 33 36 37 36 33 31 29 27 24 22 19 18 19 22 22 18 15 16 16 14 11 11 15 20 24 25 26 25 22 18 14 12 12 13 13 12 12 12 13 15 16 17 18 20 22 24 22 17 13 13
36 38 40 41 40 40 40 40 39 38 37 36 35 34 33 33 34 34 33 32 29 28 29 29 29 29 29 28 26 26 25 24 24 26 28 29 34 36 34 32 30 28 26 25 25 21 16 14 16 20 18 14 12 12 14 17 20 24 25 24 24 24 23 18 15 14 15 15 15 14 14 15 16 16 15 14 14 16 19 22 22 19 18 17 16
37 39 39 39 38 39 39 40 40 39 37 36 34 34 33 33 32 31 29 28 28 27 27 26 23 22 21 21 21 21 20 20 20 22 24 27 31 33 33 31 29 27 26 26 25 22 16 12 13 15 16 16 14 15 18 20 24 27 27 24 23 21 19 17 15 15 15 16 16 16 17 17 15 13 12 12 12 12 11 11 10 10 11 12 13
35 37 37 37 38 39 40 40 40 38 37 35 33 32 32 31 30 28 26 25 24 24 24 23 21 20 20 20 20 20 19 19 19 21 22 24 26 30 31 30 29 28 27 25 22 19 15 13 14 14 16 18 19 20 20 21 22 24 24 22 20 18 17 17 16 16 17 18 17 16 15 14 13 13 13 13 11 7 6 6 8 11 12 13 14
34 36 37 38 38 38 38 39 38 35 35 34 33 30 29 28 27 26 24 23 22 21 23 23 21 20 20 19 18 18 19 20 18 18 20 22 24 27 29 29 28 27 24 21 19 19 18 16 15 15 17 19 19 18 19 19 19 20 21 19 18 18 17 17 18 18 19 18 16 13 12 13 13 12 11 10 9 8 10 13 15 18 18 16 16
36 35 36 36 35 35 36 36 35 34 34 34 33 30 28 27 27 26 25 24 22 21 22 23 22 20 19 16 14 14 18 20 17 16 18 21 24 27 28 27 25 24 22 21 21 22 21 19 16 15 17 20 19 18 17 17 18 19 17 16 16 16 17 17 18 17 16 15 13 12 12 12 11 9 9 9 10 12 15 18 20 19 18 17 17
35 34 34 34 33 33 33 33 33 33 33 33 32 30 29 28 26 24 24 24 24 23 22 23 22 20 17 14 12 11 14 16 16 15 16 20 23 26 27 26 23 22 22 21 20 19 17 16 14 14 16 18 18 16 15 15 16 15 13 12 13 14 15 15 15 13 12 10 10 11 10 9 9 10 10 10 10 13 16 18 18 17 16 17 19
35 34 33 32 32 33 32 32 32 32 33 33 33 31 30 29 26 24 24 25 24 22 20 19 18 16 15 13 12 12 13 14 14 13 14 17 21 22 25 26 24 22 20 17 15 13 13 13 13 12 14 16 15 14 13 13 13 12 11 11 11 11 11 11 10 9 9 9 10 11 11 11 11 10 9 9 10 13 16 16 15 16 17 19 20
34 33 32 32 33 34 32 30 30 30 31 32 32 31 30 30 28 26 25 25 24 22 19 16 14 14 13 12 13 14 14 14 14 14 14 17 19 21 24 25 23 20 18 14 12 10 10 11 12 11 12 13 13 11 11 10 11 11 11 11 10 9 9 9 9 10 11 12 13 14 14 14 12 9 7 9 12 14 14 14 16 18 19 19 21
33 32 32 33 33 33 32 31 30 29 29 29 29 30 30 31 29 27 26 25 23 21 19 16 15 15 13 13 16 17 16 16 16 16 17 20 22 24 26 25 21 19 17 14 11 9 9 9 9 9 9 10 10 10 10 11 12 13 13 13 12 11 10 10 10 11 13 14 14 15 15 14 11 8 7 11 14 13 12 13 16 18 19 20 22
34 32 32 32 31 31 31 31 30 30 29 29 29 28 29 29 28 26 26 25 23 21 19 17 17 16 15 17 20 19 18 18 18 18 20 22 23 25 26 25 22 19 17 14 11 9 9 9 8 9 9 10 11 11 12 13 14 14 15 15 14 13 11 11 12 14 15 16 17 17 14 9 7 7 10 12 13 12 12 13 15 17 20 21 20
33 33 32 31 29 29 30 31 32 33 32 31 29 26 26 27 27 25 24 23 21 20 19 18 17 16 17 19 21 19 19 19 18 17 20 23 24 25 26 25 23 20 17 15 13 12 10 9 10 11 12 13 14 15 15 16 16 16 17 18 17 15 14 15 17 17 16 16 14 10 6 4 6 8 11 11 12 12 13 13 15 18 20 20 20
26 27 29 29 28 28 30 31 32 34 33 33 31 27 24 24 24 23 21 19 17 16 15 16 16 16 17 19 20 18 17 17 15 15 19 22 23 24 24 23 22 20 17 15 14 12 12 12 13 14 15 15 16 17 18 19 19 19 20 19 18 17 16 16 16 14 10 6 3 1 3 4 7 8 9 11 13 13 13 14 16 18 20 20 20
22 21 24 27 27 28 29 30 31 32 32 33 33 30 26 23 21 20 18 15 13 12 11 11 13 14 15 17 19 17 14 12 11 14 20 22 21 21 22 22 20 19 17 15 14 14 14 14 14 14 15 17 18 19 21 22 23 23 22 20 18 18 16 13 10 7 4 1 2 3 4 5 7 8 10 12 13 14 14 16 17 18 19 20 20
24 21 23 26 28 29 30 30 31 31 30 31 32 31 29 25 21 18 16 14 12 11 10 10 12 14 15 15 16 16 14 11 10 12 18 21 21 19 19 19 18 17 16 16 15 15 14 13 13 14 15 16 18 19 18 17 17 16 14 11 9 9 9 9 7 4 3 3 4 5 5 6 7 9 11 12 13 15 17 17 17 18 19 20 19
26 24 25 28 29 29 30 31 30 30 29 29 29 29 28 26 22 19 17 14 12 12 12 13 13 14 14 13 13 14 14 13 11 11 14 19 20 19 18 16 15 15 17 18 17 15 13 13 12 10 9 7 7 6 4 4 6 7 7 6 4 3 5 8 7 6 5 5 5 5 5 5 7 8 10 12 14 16 17 16 17 19 20 19 18
26 27 29 30 29 28 28 29 29 29 28 28 28 27 26 26 25 23 20 17 14 13 13 14 14 13 13 12 11 12 13 13 12 12 14 18 20 19 17 15 14 15 17 18 16 14 12 11 7 4 3 1 3 5 6 7 7 7 6 5 4 5 8 9 7 4 4 4 4 3 3 6 9 9 10 12 15 16 15 16 18 20 19 18 20
28 29 31 31 29 28 27 27 27 27 27 26 26 25 25 26 26 25 22 20 18 16 14 14 14 13 13 14 13 12 13 13 13 13 15 17 18 17 17 17 17 17 17 17 15 13 11 8 3 2 4 5 6 6 6 6 5 4 4 4 5 5 7 6 4 5 6 7 6 4 5 8 9 8 10 13 15 14 15 17 19 18 19 21 23
27 27 28 28 28 27 26 26 26 26 26 25 25 25 26 26 25 23 22 22 21 20 18 16 15 14 14 15 14 14 13 13 13 14 14 15 16 16 18 19 19 18 18 18 16 13 11 8 5 5 7 7 6 6 5 5 5 4 5 5 4 3 2 2 4 6 8 8 7 6 6 6 7 8 10 12 13 13 15 18 18 18 21 23 23
25 24 24 25 25 25 25 25 25 25 25 24 24 24 24 23 22 22 21 21 21 21 20 19 17 16 16 16 16 15 15 14 14 14 14 15 16 17 18 19 19 19 19 18 16 13 11 9 7 7 7 5 4 4 4 4 4 5 6 6 5 3 4 5 6 7 8 7 6 6 6 6 8 9 10 10 12 14 16 17 18 20 23 23 21
22 22 23 24 25 25 25 24 23 24 23 22 22 23 23 22 21 21 21 21 21 21 20 20 18 18 18 18 17 16 16 16 16 17 17 18 19 18 17 17 18 18 16 15 13 11 10 10 9 8 6 5 4 4 3 1 1 3 5 5 2 2 4 6 6 6 7 8 8 6 6 6 7 8 8 10 13 14 15 17 20 22 22 21 21
25 24 25 26 25 25 25 24 22 22 21 21 21 23 23 22 21 20 21 21 20 20 20 19 18 18 19 20 19 18 18 18 19 20 20 20 21 20 17 16 15 13 12 13 13 11 11 12 11 8 6 4 3 3 3 2 3 4 5 4 1 2 2 4 5 5 6 8 8 5 4 5 6 6 8 11 13 14 17 19 20 20 20 21 21
27 26 26 26 25 24 24 23 22 21 20 21 21 21 20 19 20 21 23 22 20 20 20 19 18 18 20 21 20 20 21 21 20 21 22 22 23 22 19 16 14 10 9 13 15 14 14 14 12 9 6 4 3 4 4 3 3 4 5 4 1 1 3 5 6 7 7 9 8 5 3 3 4 6 9 12 13 15 18 18 18 18 20 20 20
25 25 23 23 23 23 21 19 19 18 18 19 19 18 18 19 21 23 23 22 21 20 19 19 19 19 19 21 21 21 20 21 21 21 22 22 22 22 19 17 15 10 6 9 15 17 15 14 11 9 6 4 4 5 5 4 2 2 1 1 3 3 3 4 5 6 7 7 5 2 2 3 5 8 10 11 13 16 17 17 17 19 20 19 19
21 21 19 18 18 19 16 13 13 14 16 18 18 17 18 21 23 23 22 21 21 20 19 18 17 16 16 19 20 18 17 18 18 18 18 18 18 18 17 16 16 12 8 8 13 17 16 13 10 8 6 6 7 8 6 4 3 2 3 4 3 2 2 2 2 3 5 4 3 3 4 5 7 8 9 11 14 15 16 16 17 19 19 19 19
20 18 16 14 14 14 13 11 12 14 15 18 18 18 20 24 25 23 22 21 20 19 19 17 15 13 13 17 19 17 15 15 15 14 14 14 13 12 13 13 13 12 10 10 12 14 14 11 10 9 8 9 11 10 6 4 3 3 4 3 2 2 1 1 2 2 2 2 2 3 5 6 7 9 10 11 13 14 15 16 17 19 19 18 18
16 14 12 11 12 14 14 14 15 16 16 17 17 18 20 22 23 21 21 20 19 18 18 16 14 12 13 17 20 19 16 14 13 12 10 11 11 10 10 11 12 12 11 11 12 12 11 10 10 9 8 9 10 8 7 7 6 6 6 6 4 3 2 1 2 2 1 1 1 3 5 7 8 9 10 10 12 14 15 16 17 19 19 18 18
12 14 15 14 14 15 16 17 17 16 15 15 16 16 17 18 19 18 18 19 18 17 16 16 15 15 16 19 22 21 18 16 14 11 9 10 13 13 11 12 14 15 14 14 14 12 11 11 10 8 8 9 8 7 7 7 6 6 6 5 3 4 4 2 0 1 2 2 4 5 7 9 10 10 10 11 12 15 15 15 16 18 18 17 18
11 14 16 15 14 16 17 18 17 17 15 14 14 13 14 15 15 14 15 18 20 19 17 16 17 17 17 18 20 20 18 17 16 14 10 9 12 15 16 16 16 16 15 14 13 13 12 12 10 8 7 7 6 7 7 6 5 5 5 3 3 4 5 4 4 4 4 5 7 9 11 13 14 13 11 10 11 13 15 15 15 16 16 16 18
11 14 16 15 16 17 17 18 18 16 14 13 12 11 12 13 12 11 13 18 22 22 18 17 17 18 18 18 18 18 17 16 15 14 12 9 9 13 18 19 17 16 15 14 12 12 13 12 10 8 8 7 5 7 8 6 5 5 4 3 2 2 3 4 5 6 7 9 10 12 14 15 14 11 8 8 10 12 15 14 14 15 15 16 18
13 15 17 16 16 16 15 14 14 13 13 14 14 12 12 13 12 10 11 14 19 21 20 19 19 18 18 19 18 17 16 16 15 14 13 10 9 11 15 16 16 16 16 15 14 13 13 12 12 11 10 7 5 7 7 7 7 6 4 2 2 2 2 3 4 6 8 10 12 14 14 13 10 7 6 7 9 12 14 13 12 14 15 16 18
10 13 15 15 14 12 10 10 10 10 11 12 12 11 12 14 13 11 10 11 13 15 16 18 20 19 18 19 19 17 16 15 15 14 14 12 12 13 14 14 15 17 17 17 16 14 12 13 14 14 12 8 6 6 6 6 6 5 3 1 1 2 3 4 5 7 9 11 14 14 13 11 9 7 6 7 8 11 13 12 12 14 15 16 20
7 11 13 12 10 9 9 9 9 9 9 10 11 11 13 14 14 13 14 14 11 8 8 10 13 14 14 14 15 17 18 18 16 16 15 14 14 15 15 15 17 19 19 19 17 14 12 14 16 16 13 11 9 7 6 5 4 4 3 3 3 4 5 6 7 9 10 12 14 13 11 10 9 7 6 5 8 11 12 11 11 14 15 17 21
6 9 10 9 9 9 8 9 10 10 10 12 14 13 12 12 11 12 14 14 13 12 11 11 12 12 11 10 9 8 11 12 13 14 15 16 16 17 17 17 18 19 18 18 17 14 13 15 17 16 14 12 10 8 7 7 7 6 6 7 7 6 6 6 7 8 10 13 13 12 10 8 6 5 4 5 8 10 10 10 12 15 16 17 18
Wind_Direction
196 197 198 198 199 199 199 198 196 197 199 199 198 198 199 199 198 197 196 197 198 198 198 198 198 199 199 199 200 203 205 205 205 204 205 206 207 208 207 207 209 211 211 213 213 214 217 215 212 210 207 206 208 208 208 204 204 211 215 220 218 211 214 218 220 237 249 255 265 271 273 276 278 277 277 278 278 281 282 280 278 276 277 281 285
196 197 198 198 199 200 199 198 197 198 200 200 200 200 200 200 199 198 197 197 198 199 199 198 200 200 200 200 201 202 205 206 205 204 205 206 206 207 208 209 211 213 214 214 212 213 218 220 220 219 215 212 211 209 209 210 216 222 223 225 223 218 221 225 225 231 244 253 260 268 275 278 278 280 283 283 284 284 281 278 278 277 275 276 278
196 197 198 199 200 200 199 198 198 199 200 200 201 202 202 201 200 199 199 199 199 200 201 200 200 200 199 199 200 202 205 206 206 205 205 206 206 206 208 210 212 213 215 215 213 212 217 221 220 216 213 211 210 210 211 213 218 221 222 225 223 221 221 223 228 237 249 258 263 267 273 278 282 290 296 295 290 286 284 286 288 284 278 274 274
195 197 198 199 200 200 200 199 198 199 201 201 202 203 204 203 202 201 201 201 201 201 202 202 201 200 200 200 201 203 205 206 206 206 206 207 208 207 208 210 212 214 215 217 216 214 216 217 215 211 209 211 213 213 214 215 217 218 216 213 211 216 222 229 239 247 251 259 265 267 271 277 283 291 296 295 289 285 287 292 295 292 287 281 278
194 196 198 199 200 200 200 199 199 200 201 202 202 203 204 204 204 203 202 202 203 203 203 203 202 202 202 203 204 205 206 206 206 207 208 209 210 210 210 210 213 215 217 218 218 216 216 217 218 216 214 215 216 217 217 216 215 215 217 219 219 227 236 238 240 243 246 253 262 269 274 277 281 287 290 288 287 287 291 295 296 294 291 289 286
194 196 197 198 199 201 201 200 200 201 202 202 203 203 204 204 205 205 204 203 204 204 203 203 203 204 205 206 207 207 207 207 207 208 209 210 212 213 213 213 214 215 218 220 220 218 217 219 222 221 218 217 217 217 218 216 213 214 218 221 224 229 234 235 237 239 242 249 259 269 274 275 277 281 286 287 286 287 293 298 298 296 292 291 291
194 196 197 198 200 201 201 201 201 201 202 203 203 204 204 205 206 206 206 204 204 204 205 205 205 206 207 208 209 209 208 207 207 208 208 210 212 213 214 215 216 216 218 219 217 216 217 219 222 222 220 220 219 216 215 214 215 217 218 217 220 225 230 232 233 235 241 249 256 262 266 271 272 275 283 287 283 283 290 295 297 298 297 294 294
194 196 197 198 200 202 203 203 202 202 203 204 204 204 205 206 207 207 206 206 205 206 206 206 206 207 208 210 210 209 208 207 207 207 208 210 212 214 215 217 217 218 219 220 218 217 219 223 225 224 223 223 222 219 216 216 216 216 215 215 218 221 224 228 233 238 245 250 255 258 262 265 266 270 277 279 274 279 289 293 294 297 299 295 292
193 195 197 199 201 202 203 203 202 202 202 203 204 205 206 207 207 207 207 207 208 208 209 207 207 208 209 210 211 210 209 208 208 207 208 210 213 214 216 217 218 219 220 222 223 223 224 225 226 225 224 225 225 223 220 218 217 216 215 216 220 221 224 229 234 239 244 247 253 257 258 260 263 266 269 268 270 280 291 292 289 291 296 296 292
192 194 196 199 201 202 203 203 201 201 202 203 204 205 206 207 207 207 207 207 208 209 209 208 207 208 209 210 210 211 210 210 210 209 210 211 213 214 215 217 218 219 220 220 220 221 222 224 225 227 227 227 227 226 225 223 222 222 221 220 222 223 224 228 233 242 247 248 253 257 256 258 263 265 266 269 272 278 283 282 284 291 297 297 295
192 195 197 199 200 201 202 202 200 200 202 202 203 204 205 206 206 206 205 205 207 208 208 208 208 209 209 209 210 211 212 213 213 212 212 213 214 214 214 216 219 220 219 218 218 217 219 223 227 229 230 230 230 231 230 227 226 227 226 225 225 225 225 230 240 251 254 251 253 256 253 257 264 267 269 271 271 271 273 275 283 290 290 288 287
192 195 196 196 198 200 201 200 199 200 202 202 203 204 204 205 205 204 203 203 204 205 206 208 209 209 209 209 210 211 214 215 214 213 213 215 216 214 213 216 219 220 219 220 220 219 220 224 228 229 230 231 231 231 231 229 227 227 227 226 227 229 233 241 253 261 260 255 255 257 257 260 265 267 269 268 266 267 270 274 281 281 277 273 269
193 195 195 194 196 198 198 198 199 200 201 202 203 203 203 204 204 203 202 201 201 203 205 207 208 207 207 208 209 212 215 216 215 213 213 216 218 216 214 216 219 219 219 220 221 221 222 225 227 229 231 232 230 226 224 224 224 223 225 228 233 239 246 254 263 267 265 261 259 262 266 266 265 269 273 268 264 266 269 273 275 271 267 268 270
193 193 194 194 194 195 196 197 198 200 201 201 202 202 202 203 203 202 200 199 199 200 203 205 206 205 206 207 210 213 215 216 215 214 213 216 219 219 216 217 220 221 220 220 221 222 224 226 229 229 229 229 229 224 220 219 218 218 223 234 245 252 257 262 268 270 269 266 263 265 269 269 268 274 279 273 268 270 271 270 271 272 274 278 282
192 192 193 193 193 194 194 195 196 197 198 199 200 201 202 202 200 199 198 198 199 200 201 203 203 203 205 208 210 211 213 215 215 213 213 217 221 220 216 216 219 221 222 222 222 223 226 229 232 232 229 225 222 221 222 219 213 216 229 246 257 261 264 267 271 274 276 275 272 270 270 272 274 279 282 278 274 273 273 274 279 285 284 283 284
190 191 193 193 192 193 193 192 193 194 194 196 197 199 199 199 198 197 197 198 200 200 201 203 203 203 205 208 209 209 212 215 215 214 214 219 222 219 214 214 218 220 222 223 223 226 229 232 234 235 232 223 212 208 212 217 222 235 251 261 264 263 265 268 272 276 279 280 280 278 277 279 281 282 281 279 275 276 280 284 288 288 281 275 277
190 190 192 193 192 191 191 190 189 190 191 192 193 195 195 195 194 194 194 194 196 198 199 201 204 205 205 205 205 206 209 213 215 215 216 220 221 217 214 215 219 220 219 220 223 226 230 236 238 236 229 214 202 197 200 217 248 263 265 265 263 261 263 269 273 277 280 279 276 274 273 274 273 275 279 280 281 285 287 287 289 288 279 272 276
191 189 191 192 191 190 189 187 186 186 187 189 190 190 190 188 190 193 193 192 193 194 195 198 202 204 202 202 203 203 206 211 214 215 218 221 222 218 214 215 218 221 221 221 223 228 237 244 241 234 217 187 174 181 192 212 245 263 267 264 259 258 264 269 270 270 269 267 264 262 264 268 273 281 286 286 285 287 285 283 286 286 278 274 278
192 190 190 190 188 187 185 184 183 183 184 186 185 184 183 184 187 191 192 191 190 192 194 196 198 199 199 200 200 202 205 209 211 213 217 222 221 217 213 213 218 222 224 226 230 237 248 250 235 225 211 183 167 185 202 216 238 255 261 259 255 259 265 264 259 258 259 260 261 265 272 280 286 290 290 287 288 295 296 294 294 290 281 278 282
192 189 186 184 182 181 180 180 180 181 181 181 180 179 180 182 185 187 187 187 186 189 194 195 194 195 199 201 203 205 209 210 210 212 216 220 221 217 213 214 218 221 225 229 234 237 243 239 220 207 198 192 200 212 216 225 241 252 254 253 256 262 262 257 254 257 260 263 269 277 284 289 291 291 290 290 296 308 315 317 321 317 301 293 295
187 181 177 176 175 175 175 177 177 177 177 174 173 175 177 179 181 182 180 179 180 185 189 190 191 193 198 202 206 209 211 213 215 216 217 220 221 218 216 216 220 223 225 227 229 231 232 223 206 196 193 199 210 221 233 246 254 251 248 249 255 258 256 255 260 265 268 272 280 287 288 287 286 287 290 294 298 313 330 337 341 338 329 320 313
176 172 170 170 169 170 172 173 172 170 169 169 169 170 173 175 175 175 175 176 178 180 180 180 179 180 184 191 198 202 206 211 213 213 216 219 219 216 216 218 221 221 219 218 220 226 229 220 209 206 207 212 225 241 253 257 251 245 247 250 253 254 257 264 271 273 275 279 283 283 279 281 289 294 296 298 303 315 321 321 324 327 328 326 322
168 166 165 164 164 165 166 166 165 164 165 167 166 166 168 170 170 170 172 172 167 160 160 162 159 156 161 170 180 190 199 206 210 208 210 215 216 214 214 216 218 218 217 218 223 228 230 226 222 219 217 225 242 253 252 247 243 244 250 252 253 258 264 270 274 276 280 283 281 277 280 287 295 298 297 299 305 312 316 318 320 323 326 326 323
161 159 159 159 158 158 158 158 160 160 161 162 160 159 161 163 165 166 165 159 152 146 147 152 151 148 151 158 166 179 189 196 201 203 207 213 213 213 213 214 216 219 221 224 227 230 231 228 228 230 232 239 246 244 236 235 237 239 242 246 254 261 265 269 274 277 278 277 273 276 281 277 276 285 292 296 302 312 317 319 321 324 325 323 320
155 154 154 152 151 150 150 152 155 157 158 158 155 155 156 157 157 159 158 154 150 147 147 152 154 157 161 162 167 180 187 189 190 192 201 207 207 208 211 213 215 217 218 219 221 225 231 232 233 238 240 236 229 222 221 224 226 229 236 242 247 252 256 262 266 261 255 254 258 262 259 256 270 292 301 298 306 318 322 324 326 327 325 322 320
149 148 146 144 145 144 143 144 148 152 154 155 153 152 153 153 152 153 154 153 153 151 152 158 164 170 172 169 170 182 191 197 199 197 198 202 203 204 206 206 208 209 209 208 210 216 224 230 231 230 226 219 213 210 214 218 223 227 229 226 225 227 231 235 236 235 240 247 251 253 255 264 277 288 289 299 317 325 325 325 328 327 325 324 321
140 138 137 137 138 139 139 139 141 143 145 147 147 148 151 152 151 150 151 151 151 154 159 165 171 177 179 174 176 185 192 196 200 202 202 203 206 205 202 200 200 201 201 203 207 208 208 211 215 216 211 206 207 211 218 226 230 229 222 216 214 214 218 226 233 237 242 247 252 259 267 273 274 273 291 314 324 326 325 328 328 325 324 324 319
131 129 129 130 131 134 136 135 133 133 134 138 140 143 148 150 149 149 152 154 155 159 165 170 174 181 182 174 173 180 189 194 196 199 201 204 206 204 201 199 199 200 200 197 194 194 197 199 199 201 201 203 209 218 226 232 231 227 223 220 219 220 225 232 236 241 247 253 260 267 273 273 271 291 315 322 322 324 328 330 326 323 324 323 315
123 123 124 124 124 127 128 130 131 130 131 132 133 135 142 147 148 148 154 161 167 170 172 175 179 187 190 183 178 180 190 199 204 203 203 205 204 200 197 197 199 202 202 197 191 190 194 196 195 197 203 213 222 230 233 233 230 228 229 230 230 231 233 236 239 245 251 255 260 266 275 285 302 317 323 322 321 325 329 329 328 326 324 320 313
104 113 119 120 121 123 124 126 129 129 128 127 124 122 128 139 145 146 150 160 169 172 174 178 183 190 193 191 193 200 208 212 212 205 202 202 199 196 195 196 199 200 199 198 198 197 197 197 201 209 217 225 232 235 234 231 229 227 229 232 234 237 241 242 241 240 238 238 250 316 336 319 320 328 329 324 323 327 334 335 330 324 321 318 315
104 113 119 120 124 126 125 125 124 124 124 125 123 120 118 120 127 135 141 148 156 161 168 179 188 197 199 197 200 207 212 214 207 199 197 196 193 192 195 196 197 199 199 197 198 201 203 205 211 223 231 234 238 241 239 236 233 231 230 233 237 241 241 232 217 204 185 122 42 19 2 352 348 345 340 335 333 335 337 332 324 321 323 323 318
125 126 124 124 126 127 124 123 123 122 123 125 127 127 122 115 111 115 126 137 145 151 157 166 180 196 206 209 204 198 195 195 193 190 194 196 193 192 194 196 198 201 201 200 199 198 202 210 220 231 237 239 243 246 243 235 230 224 217 214 218 224 218 198 174 141 94 61 39 26 19 13 2 353 349 346 340 333 327 323 323 328 329 325 323
127 126 125 125 126 126 125 125 127 128 129 130 132 133 131 126 117 109 111 122 134 143 148 153 162 175 188 200 203 195 185 181 180 180 189 195 193 188 187 190 193 194 195 197 198 198 203 216 230 245 256 258 251 239 206 161 149 141 133 128 118 120 143 146 129 102 88 72 42 26 20 9 354 349 346 339 329 322 320 325 333 334 330 328 331
124 124 125 126 127 128 129 130 132 134 136 137 137 137 137 137 133 127 121 119 120 124 136 147 153 159 166 174 183 183 176 173 176 179 183 187 189 189 187 183 181 184 190 195 198 201 208 217 233 268 305 21 112 110 102 100 100 95 87 77 73 98 126 135 124 93 68 39 14 356 334 330 334 340 338 327 321 323 330 338 338 334 332 333 331
125 125 127 128 129 130 133 136 137 137 139 140 140 141 142 143 143 142 139 133 125 121 126 138 147 155 162 164 166 170 173 174 177 178 179 180 183 184 181 176 175 181 189 194 198 201 203 204 195 98 107 118 111 98 90 85 77 65 59 58 70 100 124 126 93 50 30 14 1 345 330 327 330 334 327 321 324 334 343 342 337 335 335 331 325
127 129 129 129 129 130 133 137 139 141 143 145 145 147 148 148 147 146 145 142 139 136 136 139 144 153 161 164 163 165 168 170 172 174 176 178 179 179 177 176 178 181 185 189 195 203 208 209 191 146 129 121 105 91 88 80 68 65 64 51 41 46 62 44 26 17 14 16 21 23 20 9 350 333 323 326 337 346 344 340 337 334 330 325 321
127 127 127 127 128 130 134 138 142 144 145 146 145 146 149 149 148 146 145 146 147 147 147 147 148 151 156 159 160 161 160 160 163 166 168 172 177 179 179 179 179 180 184 192 201 211 216 211 191 166 146 133 123 118 109 88 73 67 52 32 17 16 32 33 23 10 7 11 12 9 11 8 350 337 334 342 347 345 338 335 330 325 324 325 325
127 127 129 130 131 133 137 142 146 146 144 143 143 146 149 152 152 151 151 153 156 156 155 155 156 158 158 160 161 161 158 157 161 165 168 174 178 177 176 181 184 185 190 196 200 199 195 189 180 170 156 144 141 146 141 115 47 19 17 16 33 91 67 47 37 25 6 347 334 334 347 355 350 347 347 345 343 339 333 327 322 321 325 329 332
122 126 131 135 137 139 141 144 146 147 146 147 149 151 154 155 155 155 155 156 158 160 160 162 166 170 170 168 166 165 164 166 170 173 176 182 185 181 179 183 190 195 201 200 192 184 182 185 185 184 181 178 187 206 220 256 285 313 338 342 272 153 78 32 30 31 6 341 329 328 345 350 347 342 339 339 340 335 327 323 324 327 330 331 334
117 122 129 134 137 139 140 143 145 146 148 152 155 158 161 160 157 158 159 157 158 162 165 168 174 180 182 180 178 176 176 177 180 183 185 187 190 190 188 187 188 193 205 204 196 191 188 188 189 193 197 203 222 229 227 236 266 293 306 298 255 117 55 28 26 23 354 328 320 322 341 348 340 333 335 338 337 331 326 328 333 334 332 333 338
111 116 121 125 127 129 130 134 141 146 150 157 161 167 170 165 159 158 157 156 158 162 167 174 181 187 190 190 188 187 186 184 185 187 190 191 193 194 195 196 195 196 200 201 199 197 192 187 187 190 194 201 217 214 206 207 238 279 288 168 134 95 52 32 29 16 350 331 328 3 38 13 348 343 341 336 331 331 334 336 336 334 334 338 342
109 113 115 115 118 124 127 134 147 155 162 166 166 161 157 154 152 152 152 154 157 160 164 173 180 185 188 189 187 184 184 185 186 187 189 192 195 198 202 203 204 206 210 207 200 196 191 184 182 183 185 192 199 195 191 200 228 217 166 146 136 114 79 52 29 9 1 8 47 60 35 6 353 349 340 331 330 336 338 336 334 336 337 340 342
108 110 111 113 122 133 140 144 147 147 150 155 153 146 142 145 148 150 151 154 157 160 163 168 174 177 180 182 179 174 173 179 184 186 189 193 197 205 213 215 213 212 214 209 197 188 182 177 175 180 188 195 196 198 206 234 253 229 197 190 189 173 135 12 348 345 360 18 29 12 356 348 344 338 329 326 330 333 333 334 335 336 336 337 341
116 116 119 129 142 148 145 138 133 131 132 135 136 135 138 143 147 151 153 155 158 163 166 168 170 172 174 176 177 175 174 177 182 188 198 207 207 203 202 203 202 202 202 198 191 189 188 184 180 183 196 205 207 216 235 248 254 248 236 231 224 197 168 52 33 47 51 4 325 331 329 325 325 323 319 320 324 328 332 336 335 332 334 340 342
126 125 129 137 142 140 137 134 134 134 132 131 130 131 135 140 147 155 159 160 160 163 168 170 171 172 173 178 184 187 186 185 186 192 206 216 214 209 202 197 199 202 200 193 189 187 186 185 184 186 197 208 216 226 230 231 236 238 234 233 225 207 196 186 63 346 318 296 306 319 317 312 310 309 306 310 321 329 333 332 329 331 339 343 339
127 122 125 130 130 127 129 133 134 133 133 133 131 131 135 140 145 151 158 162 165 167 169 172 175 176 175 179 187 195 200 203 208 214 222 225 221 215 208 201 196 194 191 189 191 191 186 182 183 182 179 186 204 215 216 219 226 224 221 224 227 224 228 236 254 282 301 307 311 313 311 309 308 304 299 305 321 330 329 324 326 335 341 337 330
142 136 133 131 128 127 130 133 133 135 142 146 143 138 135 132 128 122 129 145 159 166 169 173 177 179 181 185 190 192 196 202 208 211 213 220 221 207 198 195 195 193 190 189 195 199 194 189 190 190 183 177 182 192 200 213 222 213 209 215 227 244 259 257 260 279 295 302 306 308 308 309 307 301 297 307 320 325 323 322 331 339 335 327 326
142 139 135 133 132 133 136 141 143 146 149 151 150 145 137 133 132 127 123 134 150 159 166 171 174 175 181 189 191 188 190 196 201 201 199 201 201 190 186 191 200 205 201 194 191 192 194 195 197 199 196 187 176 180 190 201 202 195 191 205 226 248 268 259 263 286 296 300 307 311 310 306 298 287 290 304 313 319 323 327 335 336 329 326 330
138 136 133 133 136 138 142 150 151 144 141 145 150 151 147 147 151 156 156 159 164 167 169 174 180 185 192 193 191 190 192 197 203 207 203 197 194 191 187 190 195 196 194 191 188 188 193 197 197 198 199 196 191 191 189 188 191 194 198 210 240 260 265 268 289 304 306 309 314 315 310 302 291 277 275 291 309 324 331 333 333 332 329 329 332
142 142 141 141 144 151 162 166 161 159 164 167 165 161 160 162 167 172 174 174 171 159 143 143 157 174 187 191 192 200 205 204 206 210 205 196 193 193 191 188 187 187 189 190 191 192 194 191 187 187 191 193 194 198 203 213 236 258 263 270 286 289 283 288 301 306 307 316 321 317 307 300 289 265 255 289 321 332 333 330 330 330 329 330 334
142 147 153 156 157 166 178 179 176 180 181 171 163 158 156 152 147 146 147 141 128 115 105 95 97 104 108 106 116 156 189 198 207 214 212 206 203 201 196 192 190 191 192 194 195 198 204 198 189 186 191 196 198 207 224 242 259 268 264 264 272 280 284 290 296 300 307 318 323 316 306 300 279 242 248 313 331 330 326 322 323 327 330 334 341